Wetterdaten: Montag, 29.08.2011
Datum Zeit Temp. Auen Feucht Auen Luftdruck Regen Richtung Richtung Windben
29.08.2011 00:00 10,7 C 97 % 1087,5 hPa 0,0 mm N-NO 12 2,5 km/h (1 Bft)
29.08.2011 00:05 10,6 C 97 % 1087,4 hPa 0,0 mm N 6 2,5 km/h (1 Bft)
29.08.2011 00:10 10,6 C 97 % 1087,4 hPa 0,0 mm N 1 2,5 km/h (1 Bft)
29.08.2011 00:15 10,7 C 98 % 1087,6 hPa 0,0 mm NO 53 3,6 km/h (1 Bft)
29.08.2011 00:20 10,7 C 98 % 1087,3 hPa 0,0 mm O-SO 112 3,6 km/h (1 Bft)
29.08.2011 00:25 10,6 C 98 % 1087,6 hPa 0,0 mm O-SO 105 2,5 km/h (1 Bft)
29.08.2011 00:30 10,5 C 98 % 1087,4 hPa 0,0 mm O-SO 120 2,5 km/h (1 Bft)
29.08.2011 00:35 10,5 C 98 % 1087,5 hPa 0,0 mm SO 129 2,5 km/h (1 Bft)
29.08.2011 00:40 10,5 C 98 % 1087,3 hPa 0,0 mm SO 135 1,1 km/h (1 Bft)
29.08.2011 00:45 10,4 C 98 % 1087,5 hPa 0,0 mm SO 135 1,1 km/h (1 Bft)
29.08.2011 00:50 10,3 C 98 % 1087,2 hPa 0,0 mm SO 135 1,1 km/h (1 Bft)
29.08.2011 00:55 10,3 C 98 % 1087,2 hPa 0,0 mm N 0 0,0 km/h (0 Bft)
29.08.2011 01:00 10,3 C 98 % 1087,1 hPa 0,0 mm N 0 0,0 km/h (0 Bft)
29.08.2011 01:05 10,3 C 98 % 1087,3 hPa 0,0 mm N 0 0,0 km/h (0 Bft)
29.08.2011 01:10 10,1 C 98 % 1087,3 hPa 0,0 mm N 0 0,0 km/h (0 Bft)
29.08.2011 01:15 10,2 C 99 % 1087,2 hPa 0,0 mm N 0 0,0 km/h (0 Bft)
29.08.2011 01:20 10,3 C 99 % 1087,0 hPa 0,0 mm N 0 0,0 km/h (0 Bft)
29.08.2011 01:25 10,2 C 99 % 1086,9 hPa 0,0 mm N 0 0,0 km/h (0 Bft)
29.08.2011 01:30 10,0 C 99 % 1087,0 hPa 0,0 mm N 0 0,0 km/h (0 Bft)
29.08.2011 01:35 9,9 C 99 % 1087,0 hPa 0,0 mm N 0 0,0 km/h (0 Bft)
29.08.2011 01:40 9,9 C 99 % 1087,1 hPa 0,0 mm N 0 0,0 km/h (0 Bft)
29.08.2011 01:45 9,9 C 99 % 1087,0 hPa 0,0 mm N 0 0,0 km/h (0 Bft)
29.08.2011 01:50 9,8 C 99 % 1086,9 hPa 0,0 mm N 0 0,0 km/h (0 Bft)
29.08.2011 01:55 9,8 C 99 % 1087,0 hPa 0,0 mm N 0 0,0 km/h (0 Bft)
29.08.2011 02:00 9,7 C 99 % 1087,0 hPa 0,0 mm N 0 0,0 km/h (0 Bft)
29.08.2011 02:05 9,6 C 99 % 1087,2 hPa 0,0 mm N 0 0,0 km/h (0 Bft)
29.08.2011 02:10 9,5 C 99 % 1087,0 hPa 0,0 mm N 0 0,0 km/h (0 Bft)
29.08.2011 02:15 9,4 C 99 % 1086,9 hPa 0,0 mm N 0 0,0 km/h (0 Bft)
29.08.2011 02:20 9,4 C 99 % 1086,9 hPa 0,0 mm N 0 0,0 km/h (0 Bft)
29.08.2011 02:25 9,4 C 99 % 1086,9 hPa 0,0 mm N 0 0,0 km/h (0 Bft)
29.08.2011 02:30 9,4 C 99 % 1086,8 hPa 0,0 mm N 0 0,0 km/h (0 Bft)
29.08.2011 02:35 9,4 C 99 % 1086,9 hPa 0,0 mm N 0 0,0 km/h (0 Bft)
29.08.2011 02:40 9,3 C 99 % 1086,8 hPa 0,0 mm N 0 0,0 km/h (0 Bft)
29.08.2011 02:45 9,3 C 99 % 1087,0 hPa 0,0 mm N 0 0,0 km/h (0 Bft)
29.08.2011 02:50 9,4 C 99 % 1087,0 hPa 0,0 mm N 0 0,0 km/h (0 Bft)
29.08.2011 02:55 9,3 C 99 % 1087,0 hPa 0,0 mm N 0 0,0 km/h (0 Bft)
29.08.2011 03:00 9,2 C 99 % 1087,0 hPa 0,0 mm N 0 0,0 km/h (0 Bft)
29.08.2011 03:05 9,2 C 99 % 1087,0 hPa 0,0 mm N 0 0,0 km/h (0 Bft)
29.08.2011 03:10 9,1 C 99 % 1086,9 hPa 0,0 mm N 0 0,0 km/h (0 Bft)
29.08.2011 03:15 9,1 C 99 % 1087,0 hPa 0,0 mm N 0 0,0 km/h (0 Bft)
29.08.2011 03:20 9,1 C 99 % 1087,0 hPa 0,0 mm N 0 0,0 km/h (0 Bft)
29.08.2011 03:25 9,2 C 99 % 1086,9 hPa 0,0 mm N 0 0,0 km/h (0 Bft)
29.08.2011 03:30 9,2 C 99 % 1087,0 hPa 0,0 mm NO 45 1,1 km/h (1 Bft)
29.08.2011 03:35 9,2 C 99 % 1087,0 hPa 0,0 mm NO 45 1,1 km/h (1 Bft)
29.08.2011 03:40 9,2 C 99 % 1086,9 hPa 0,0 mm NO 45 1,1 km/h (1 Bft)
29.08.2011 03:45 9,1 C 99 % 1086,8 hPa 0,0 mm NO 45 1,1 km/h (1 Bft)
29.08.2011 03:50 9,1 C 99 % 1087,0 hPa 0,0 mm NO 45 1,1 km/h (1 Bft)
29.08.2011 03:55 9,0 C 99 % 1086,9 hPa 0,0 mm NO 45 1,1 km/h (1 Bft)
29.08.2011 04:00 9,1 C 99 % 1086,9 hPa 0,0 mm N 0 0,0 km/h (0 Bft)
29.08.2011 04:05 9,1 C 99 % 1086,8 hPa 0,0 mm N 0 0,0 km/h (0 Bft)
29.08.2011 04:10 9,0 C 99 % 1086,7 hPa 0,0 mm N 0 0,0 km/h (0 Bft)
29.08.2011 04:15 9,0 C 99 % 1086,9 hPa 0,0 mm NO 45 1,1 km/h (1 Bft)
29.08.2011 04:20 9,0 C 99 % 1086,7 hPa 0,0 mm NO 45 1,1 km/h (1 Bft)
29.08.2011 04:25 9,0 C 99 % 1086,7 hPa 0,0 mm NO 45 1,1 km/h (1 Bft)
29.08.2011 04:30 9,0 C 99 % 1086,8 hPa 0,0 mm N 0 0,0 km/h (0 Bft)
29.08.2011 04:35 9,0 C 99 % 1086,8 hPa 0,0 mm N 0 0,0 km/h (0 Bft)
29.08.2011 04:40 8,9 C 99 % 1086,8 hPa 0,0 mm N 0 0,0 km/h (0 Bft)
29.08.2011 04:45 8,8 C 99 % 1086,9 hPa 0,0 mm N 0 0,0 km/h (0 Bft)
29.08.2011 04:50 8,8 C 99 % 1086,9 hPa 0,0 mm N 0 0,0 km/h (0 Bft)
29.08.2011 04:55 8,7 C 99 % 1086,8 hPa 0,0 mm NO 45 1,1 km/h (1 Bft)
29.08.2011 05:00 8,6 C 99 % 1086,7 hPa 0,0 mm NO 45 1,1 km/h (1 Bft)
29.08.2011 05:05 8,6 C 99 % 1086,8 hPa 0,0 mm NO 45 1,1 km/h (1 Bft)
29.08.2011 05:10 8,6 C 99 % 1086,6 hPa 0,0 mm N 0 0,0 km/h (0 Bft)
29.08.2011 05:15 8,5 C 99 % 1086,6 hPa 0,0 mm N 0 0,0 km/h (0 Bft)
29.08.2011 05:20 8,5 C 99 % 1086,6 hPa 0,0 mm N 0 0,0 km/h (0 Bft)
29.08.2011 05:25 8,5 C 99 % 1086,6 hPa 0,0 mm N 0 0,0 km/h (0 Bft)
29.08.2011 05:30 8,5 C 99 % 1086,6 hPa 0,0 mm NO 45 1,1 km/h (1 Bft)
29.08.2011 05:35 8,5 C 99 % 1086,5 hPa 0,0 mm NO 45 1,1 km/h (1 Bft)
29.08.2011 05:40 8,5 C 99 % 1086,5 hPa 0,0 mm NO 45 1,1 km/h (1 Bft)
29.08.2011 05:45 8,4 C 99 % 1086,4 hPa 0,0 mm N 0 0,0 km/h (0 Bft)
29.08.2011 05:50 8,4 C 99 % 1086,2 hPa 0,0 mm NO 45 1,1 km/h (1 Bft)
29.08.2011 05:55 8,3 C 99 % 1086,5 hPa 0,0 mm NO 45 2,5 km/h (1 Bft)
29.08.2011 06:00 8,4 C 99 % 1086,3 hPa 0,0 mm NO 45 3,6 km/h (1 Bft)
29.08.2011 06:05 8,4 C 99 % 1086,3 hPa 0,0 mm NO 45 3,6 km/h (1 Bft)
29.08.2011 06:10 8,4 C 99 % 1086,3 hPa 0,0 mm NO 45 3,6 km/h (1 Bft)
29.08.2011 06:15 8,4 C 99 % 1086,2 hPa 0,0 mm NO 45 3,6 km/h (1 Bft)
29.08.2011 06:20 8,4 C 99 % 1086,3 hPa 0,0 mm O 86 2,5 km/h (1 Bft)
29.08.2011 06:25 8,4 C 99 % 1086,4 hPa 0,0 mm SO 124 2,5 km/h (1 Bft)
29.08.2011 06:30 8,4 C 99 % 1086,4 hPa 0,0 mm SO 135 2,5 km/h (1 Bft)
29.08.2011 06:35 8,4 C 99 % 1086,2 hPa 0,0 mm SO 135 1,1 km/h (1 Bft)
29.08.2011 06:40 8,5 C 99 % 1086,3 hPa 0,0 mm SO 135 2,5 km/h (1 Bft)
29.08.2011 06:45 8,6 C 99 % 1086,3 hPa 0,0 mm SO 135 2,5 km/h (1 Bft)
29.08.2011 06:50 8,6 C 99 % 1086,2 hPa 0,0 mm SO 135 2,5 km/h (1 Bft)
29.08.2011 06:55 8,7 C 99 % 1086,1 hPa 0,0 mm SO 135 2,5 km/h (1 Bft)
29.08.2011 07:00 9,0 C 99 % 1086,1 hPa 0,0 mm SO 135 1,1 km/h (1 Bft)
29.08.2011 07:05 9,1 C 99 % 1086,0 hPa 0,0 mm SO 135 1,1 km/h (1 Bft)
29.08.2011 07:10 9,5 C 99 % 1085,8 hPa 0,0 mm SO 135 2,5 km/h (1 Bft)
29.08.2011 07:15 9,7 C 99 % 1085,6 hPa 0,0 mm SO 135 2,5 km/h (1 Bft)
29.08.2011 07:20 10,1 C 99 % 1085,5 hPa 0,0 mm SO 135 1,1 km/h (1 Bft)
29.08.2011 07:25 10,7 C 99 % 1085,4 hPa 0,0 mm S-SO 166 3,6 km/h (1 Bft)
29.08.2011 07:30 11,2 C 99 % 1085,3 hPa 0,0 mm S 177 3,6 km/h (1 Bft)
29.08.2011 07:35 11,8 C 99 % 1085,0 hPa 0,0 mm S 181 3,6 km/h (1 Bft)
29.08.2011 07:40 12,4 C 99 % 1085,0 hPa 0,0 mm S 181 2,5 km/h (1 Bft)
29.08.2011 07:45 13,0 C 99 % 1084,8 hPa 0,0 mm S 181 2,5 km/h (1 Bft)
29.08.2011 07:50 13,3 C 98 % 1084,9 hPa 0,0 mm S 177 5,0 km/h (1 Bft)
29.08.2011 07:55 13,6 C 97 % 1084,7 hPa 0,0 mm S 173 5,0 km/h (1 Bft)
29.08.2011 08:00 14,1 C 96 % 1084,5 hPa 0,0 mm S 190 5,0 km/h (1 Bft)
29.08.2011 08:05 14,1 C 96 % 1084,7 hPa 0,0 mm W-SW 246 5,0 km/h (1 Bft)
29.08.2011 08:10 14,9 C 94 % 1084,4 hPa 0,0 mm W 259 3,6 km/h (1 Bft)
29.08.2011 08:15 15,2 C 92 % 1084,5 hPa 0,0 mm W-SW 238 5,0 km/h (1 Bft)
29.08.2011 08:20 15,5 C 91 % 1084,5 hPa 0,0 mm W-SW 251 5,0 km/h (1 Bft)
29.08.2011 08:25 16,0 C 91 % 1084,4 hPa 0,0 mm W 259 3,6 km/h (1 Bft)
29.08.2011 08:30 16,6 C 90 % 1084,0 hPa 0,0 mm S 189 3,6 km/h (1 Bft)
29.08.2011 08:35 16,9 C 89 % 1083,8 hPa 0,0 mm SO 136 3,6 km/h (1 Bft)
29.08.2011 08:40 16,8 C 87 % 1083,8 hPa 0,0 mm SO 135 3,6 km/h (1 Bft)
29.08.2011 08:45 16,4 C 87 % 1083,9 hPa 0,0 mm SO 130 5,0 km/h (1 Bft)
29.08.2011 08:50 16,4 C 88 % 1083,8 hPa 0,0 mm SO 128 5,0 km/h (1 Bft)
29.08.2011 08:55 16,9 C 88 % 1083,8 hPa 0,0 mm SO 134 5,0 km/h (1 Bft)
29.08.2011 09:00 17,1 C 87 % 1083,6 hPa 0,0 mm SO 136 5,0 km/h (1 Bft)
29.08.2011 09:05 17,1 C 87 % 1083,7 hPa 0,0 mm SO 135 5,0 km/h (1 Bft)
29.08.2011 09:10 17,4 C 88 % 1083,6 hPa 0,0 mm SO 135 7,2 km/h (2 Bft)
29.08.2011 09:15 17,7 C 87 % 1083,7 hPa 0,0 mm SO 135 7,2 km/h (2 Bft)
29.08.2011 09:20 18,6 C 85 % 1083,3 hPa 0,0 mm S-SO 161 6,1 km/h (2 Bft)
29.08.2011 09:25 19,4 C 82 % 1083,1 hPa 0,0 mm W-SW 256 6,1 km/h (2 Bft)
29.08.2011 09:30 20,1 C 81 % 1082,9 hPa 0,0 mm SW 236 6,1 km/h (2 Bft)
29.08.2011 09:35 20,6 C 78 % 1082,5 hPa 0,0 mm S-SW 197 5,0 km/h (1 Bft)
29.08.2011 09:40 20,7 C 74 % 1082,7 hPa 0,0 mm SW 225 5,0 km/h (1 Bft)
29.08.2011 09:45 20,9 C 71 % 1082,4 hPa 0,0 mm W 269 5,0 km/h (1 Bft)
29.08.2011 09:50 21,0 C 71 % 1082,4 hPa 0,0 mm W 271 7,2 km/h (2 Bft)
29.08.2011 09:55 21,6 C 69 % 1082,2 hPa 0,0 mm W 270 8,6 km/h (2 Bft)
29.08.2011 10:00 21,7 C 67 % 1082,4 hPa 0,0 mm W-SW 247 8,6 km/h (2 Bft)
29.08.2011 10:05 21,7 C 67 % 1082,1 hPa 0,0 mm S-SW 209 8,6 km/h (2 Bft)
29.08.2011 10:10 22,2 C 64 % 1082,2 hPa 0,0 mm S 191 8,6 km/h (2 Bft)
29.08.2011 10:15 22,0 C 63 % 1082,0 hPa 0,0 mm SW 220 12,2 km/h (2 Bft)
29.08.2011 10:20 22,1 C 62 % 1082,4 hPa 0,0 mm W-SW 240 13,3 km/h (3 Bft)
29.08.2011 10:25 22,2 C 61 % 1082,4 hPa 0,0 mm W-SW 244 13,3 km/h (3 Bft)
29.08.2011 10:30 22,5 C 60 % 1082,4 hPa 0,0 mm W-SW 243 13,3 km/h (3 Bft)
29.08.2011 10:35 22,6 C 59 % 1082,3 hPa 0,0 mm W-SW 245 13,3 km/h (3 Bft)
29.08.2011 10:40 22,1 C 60 % 1082,3 hPa 0,0 mm W-SW 244 13,3 km/h (3 Bft)
29.08.2011 10:45 22,1 C 62 % 1082,4 hPa 0,0 mm W-SW 250 13,3 km/h (3 Bft)
29.08.2011 10:50 22,1 C 60 % 1082,3 hPa 0,0 mm W-SW 255 13,3 km/h (3 Bft)
29.08.2011 10:55 21,8 C 61 % 1082,6 hPa 0,0 mm W-SW 255 13,3 km/h (3 Bft)
29.08.2011 11:00 21,6 C 61 % 1082,6 hPa 0,0 mm W 267 13,3 km/h (3 Bft)
29.08.2011 11:05 21,6 C 61 % 1082,3 hPa 0,0 mm W-NW 288 13,3 km/h (3 Bft)
29.08.2011 11:10 21,9 C 63 % 1082,3 hPa 0,0 mm W-NW 299 13,3 km/h (3 Bft)
29.08.2011 11:15 22,1 C 62 % 1082,5 hPa 0,0 mm W 278 11,2 km/h (2 Bft)
29.08.2011 11:20 21,8 C 61 % 1082,4 hPa 0,0 mm W 262 13,3 km/h (3 Bft)
29.08.2011 11:25 21,7 C 63 % 1082,5 hPa 0,0 mm W-SW 256 13,3 km/h (3 Bft)
29.08.2011 11:30 21,9 C 64 % 1082,3 hPa 0,0 mm W-SW 249 12,2 km/h (2 Bft)
29.08.2011 11:35 22,3 C 62 % 1082,2 hPa 0,0 mm W-SW 252 12,2 km/h (2 Bft)
29.08.2011 11:40 22,4 C 62 % 1082,3 hPa 0,0 mm W 260 12,2 km/h (2 Bft)
29.08.2011 11:45 22,5 C 58 % 1082,3 hPa 0,0 mm W-SW 244 13,3 km/h (3 Bft)
29.08.2011 11:50 22,6 C 57 % 1082,4 hPa 0,0 mm SW 228 13,3 km/h (3 Bft)
29.08.2011 11:55 22,7 C 56 % 1082,2 hPa 0,0 mm SW 226 14,8 km/h (3 Bft)
29.08.2011 12:00 22,6 C 56 % 1082,2 hPa 0,0 mm W-SW 240 14,8 km/h (3 Bft)
29.08.2011 12:05 22,6 C 55 % 1082,2 hPa 0,0 mm W-SW 240 13,3 km/h (3 Bft)
29.08.2011 12:10 22,8 C 55 % 1082,0 hPa 0,0 mm SW 224 13,3 km/h (3 Bft)
29.08.2011 12:15 22,9 C 54 % 1082,1 hPa 0,0 mm SW 229 15,8 km/h (3 Bft)
29.08.2011 12:20 22,8 C 54 % 1081,9 hPa 0,0 mm W-SW 253 15,8 km/h (3 Bft)
29.08.2011 12:25 22,7 C 54 % 1082,0 hPa 0,0 mm W 270 14,8 km/h (3 Bft)
29.08.2011 12:30 22,6 C 53 % 1082,3 hPa 0,0 mm W 260 17,3 km/h (3 Bft)
29.08.2011 12:35 22,8 C 53 % 1081,8 hPa 0,0 mm W-SW 250 17,3 km/h (3 Bft)
29.08.2011 12:40 23,0 C 52 % 1081,6 hPa 0,0 mm W 264 15,8 km/h (3 Bft)
29.08.2011 12:45 22,9 C 53 % 1081,8 hPa 0,0 mm W 259 14,8 km/h (3 Bft)
29.08.2011 12:50 22,6 C 54 % 1081,6 hPa 0,0 mm W-SW 239 14,8 km/h (3 Bft)
29.08.2011 12:55 22,6 C 55 % 1081,9 hPa 0,0 mm W-SW 248 14,8 km/h (3 Bft)
29.08.2011 13:00 23,0 C 53 % 1081,8 hPa 0,0 mm W 262 13,3 km/h (3 Bft)
29.08.2011 13:05 23,0 C 53 % 1081,4 hPa 0,0 mm W-SW 243 13,3 km/h (3 Bft)
29.08.2011 13:10 22,9 C 52 % 1081,6 hPa 0,0 mm SW 232 14,8 km/h (3 Bft)
29.08.2011 13:15 22,9 C 52 % 1081,6 hPa 0,0 mm SW 235 17,3 km/h (3 Bft)
29.08.2011 13:20 23,0 C 52 % 1081,6 hPa 0,0 mm W-SW 242 17,3 km/h (3 Bft)
29.08.2011 13:25 23,4 C 52 % 1081,6 hPa 0,0 mm W-SW 246 13,3 km/h (3 Bft)
29.08.2011 13:30 23,7 C 52 % 1081,3 hPa 0,0 mm SW 226 15,8 km/h (3 Bft)
29.08.2011 13:35 23,6 C 51 % 1081,5 hPa 0,0 mm SW 222 15,8 km/h (3 Bft)
29.08.2011 13:40 23,5 C 50 % 1081,4 hPa 0,0 mm W-SW 244 18,4 km/h (3 Bft)
29.08.2011 13:45 23,7 C 51 % 1081,3 hPa 0,0 mm W-SW 249 18,4 km/h (3 Bft)
29.08.2011 13:50 23,9 C 52 % 1081,2 hPa 0,0 mm W 270 12,2 km/h (2 Bft)
29.08.2011 13:55 24,2 C 51 % 1081,4 hPa 0,0 mm W 269 13,3 km/h (3 Bft)
29.08.2011 14:00 24,1 C 49 % 1081,2 hPa 0,0 mm W-SW 237 13,3 km/h (3 Bft)
29.08.2011 14:05 24,1 C 49 % 1081,2 hPa 0,0 mm S-SW 209 12,2 km/h (2 Bft)
29.08.2011 14:10 23,9 C 50 % 1081,3 hPa 0,0 mm S 187 12,2 km/h (2 Bft)
29.08.2011 14:15 23,7 C 50 % 1081,2 hPa 0,0 mm S-SW 207 13,3 km/h (3 Bft)
29.08.2011 14:20 24,0 C 50 % 1081,2 hPa 0,0 mm SW 231 13,3 km/h (3 Bft)
29.08.2011 14:25 24,3 C 49 % 1081,2 hPa 0,0 mm W-SW 243 12,2 km/h (2 Bft)
29.08.2011 14:30 24,3 C 48 % 1081,0 hPa 0,0 mm W-SW 246 14,8 km/h (3 Bft)
29.08.2011 14:35 24,3 C 49 % 1081,2 hPa 0,0 mm W-SW 246 14,8 km/h (3 Bft)
29.08.2011 14:40 24,3 C 49 % 1081,2 hPa 0,0 mm W-SW 257 14,8 km/h (3 Bft)
29.08.2011 14:45 24,0 C 49 % 1081,1 hPa 0,0 mm W-SW 256 15,8 km/h (3 Bft)
29.08.2011 14:50 24,2 C 49 % 1081,2 hPa 0,0 mm W-SW 252 15,8 km/h (3 Bft)
29.08.2011 14:55 24,2 C 49 % 1081,2 hPa 0,0 mm W-SW 258 13,3 km/h (3 Bft)
29.08.2011 15:00 24,4 C 50 % 1080,9 hPa 0,0 mm W-SW 239 12,2 km/h (2 Bft)
29.08.2011 15:05 24,4 C 50 % 1081,1 hPa 0,0 mm W 263 11,2 km/h (2 Bft)
29.08.2011 15:10 24,7 C 51 % 1081,1 hPa 0,0 mm W-NW 302 12,2 km/h (2 Bft)
29.08.2011 15:15 24,7 C 50 % 1081,2 hPa 0,0 mm W-NW 293 12,2 km/h (2 Bft)
29.08.2011 15:20 24,6 C 48 % 1081,1 hPa 0,0 mm W 270 14,8 km/h (3 Bft)
29.08.2011 15:25 24,4 C 48 % 1080,9 hPa 0,0 mm SW 226 14,8 km/h (3 Bft)
29.08.2011 15:30 24,1 C 50 % 1081,1 hPa 0,0 mm SW 230 12,2 km/h (2 Bft)
29.08.2011 15:35 24,1 C 50 % 1081,1 hPa 0,0 mm W-SW 244 15,8 km/h (3 Bft)
29.08.2011 15:40 23,9 C 49 % 1081,2 hPa 0,0 mm W-SW 239 15,8 km/h (3 Bft)
29.08.2011 15:45 23,5 C 49 % 1081,3 hPa 0,0 mm SW 220 13,3 km/h (3 Bft)
29.08.2011 15:50 22,9 C 52 % 1081,5 hPa 0,0 mm S-SW 200 13,3 km/h (3 Bft)
29.08.2011 15:55 22,5 C 53 % 1081,6 hPa 0,0 mm SW 214 14,8 km/h (3 Bft)
29.08.2011 16:00 22,1 C 54 % 1081,5 hPa 0,0 mm SW 218 14,8 km/h (3 Bft)
29.08.2011 16:05 22,1 C 55 % 1081,5 hPa 0,0 mm S-SW 197 12,2 km/h (2 Bft)
29.08.2011 16:10 22,0 C 55 % 1081,7 hPa 0,0 mm S-SW 194 13,3 km/h (3 Bft)
29.08.2011 16:15 22,4 C 55 % 1081,4 hPa 0,0 mm SW 221 13,3 km/h (3 Bft)
29.08.2011 16:20 22,9 C 54 % 1081,3 hPa 0,0 mm SW 235 12,2 km/h (2 Bft)
29.08.2011 16:25 23,1 C 52 % 1081,4 hPa 0,0 mm SW 220 13,3 km/h (3 Bft)
29.08.2011 16:30 23,1 C 53 % 1081,2 hPa 0,0 mm S-SW 197 13,3 km/h (3 Bft)
29.08.2011 16:35 23,2 C 53 % 1081,0 hPa 0,0 mm S-SW 203 11,2 km/h (2 Bft)
29.08.2011 16:40 23,4 C 53 % 1081,1 hPa 0,0 mm SW 234 11,2 km/h (2 Bft)
29.08.2011 16:45 23,4 C 50 % 1081,0 hPa 0,0 mm W-SW 242 15,8 km/h (3 Bft)
29.08.2011 16:50 23,3 C 51 % 1081,1 hPa 0,0 mm SW 234 15,8 km/h (3 Bft)
29.08.2011 16:55 23,3 C 51 % 1081,1 hPa 0,0 mm SW 231 13,3 km/h (3 Bft)
29.08.2011 17:00 23,2 C 51 % 1081,1 hPa 0,0 mm SW 214 13,3 km/h (3 Bft)
29.08.2011 17:05 23,2 C 51 % 1081,1 hPa 0,0 mm SW 216 13,3 km/h (3 Bft)
29.08.2011 17:10 22,8 C 52 % 1081,2 hPa 0,0 mm SW 216 9,7 km/h (2 Bft)
29.08.2011 17:15 22,7 C 54 % 1081,2 hPa 0,0 mm S-SW 202 9,7 km/h (2 Bft)
29.08.2011 17:20 22,3 C 53 % 1081,3 hPa 0,0 mm S-SW 200 14,8 km/h (3 Bft)
29.08.2011 17:25 22,0 C 53 % 1081,4 hPa 0,0 mm SW 219 14,8 km/h (3 Bft)
29.08.2011 17:30 21,8 C 54 % 1081,3 hPa 0,0 mm SW 220 8,6 km/h (2 Bft)
29.08.2011 17:35 21,7 C 55 % 1081,2 hPa 0,0 mm S 184 6,1 km/h (2 Bft)
29.08.2011 17:40 21,7 C 55 % 1081,0 hPa 0,0 mm S-SW 203 11,2 km/h (2 Bft)
29.08.2011 17:45 21,6 C 55 % 1081,2 hPa 0,0 mm S-SW 209 11,2 km/h (2 Bft)
29.08.2011 17:50 21,5 C 55 % 1081,3 hPa 0,0 mm S-SW 202 8,6 km/h (2 Bft)
29.08.2011 17:55 21,3 C 55 % 1081,3 hPa 0,0 mm S 187 8,6 km/h (2 Bft)
29.08.2011 18:00 21,2 C 56 % 1081,5 hPa 0,0 mm S-SO 164 8,6 km/h (2 Bft)
29.08.2011 18:05 21,2 C 56 % 1081,3 hPa 0,0 mm O-NO 67 5,0 km/h (1 Bft)
29.08.2011 18:10 20,8 C 58 % 1081,6 hPa 0,0 mm NO 48 5,0 km/h (1 Bft)
29.08.2011 18:15 20,5 C 58 % 1081,4 hPa 0,0 mm NO 56 5,0 km/h (1 Bft)
29.08.2011 18:20 20,4 C 58 % 1081,5 hPa 0,0 mm S 169 9,7 km/h (2 Bft)
29.08.2011 18:25 20,4 C 60 % 1081,5 hPa 0,0 mm S 179 9,7 km/h (2 Bft)
29.08.2011 18:30 20,3 C 59 % 1081,6 hPa 0,0 mm S-SO 149 8,6 km/h (2 Bft)
29.08.2011 18:35 20,1 C 61 % 1081,6 hPa 0,0 mm SW 221 6,1 km/h (2 Bft)
29.08.2011 18:40 19,8 C 62 % 1081,6 hPa 0,0 mm W-NW 292 5,0 km/h (1 Bft)
29.08.2011 18:45 19,6 C 63 % 1081,9 hPa 0,0 mm NW 314 3,6 km/h (1 Bft)
29.08.2011 18:50 19,4 C 64 % 1082,0 hPa 0,0 mm NW 314 3,6 km/h (1 Bft)
29.08.2011 18:55 19,2 C 66 % 1081,7 hPa 0,0 mm NW 314 3,6 km/h (1 Bft)
29.08.2011 19:00 19,1 C 66 % 1082,0 hPa 0,0 mm NW 314 2,5 km/h (1 Bft)
29.08.2011 19:05 19,1 C 66 % 1081,8 hPa 0,0 mm NW 314 2,5 km/h (1 Bft)
29.08.2011 19:10 18,9 C 68 % 1082,0 hPa 0,0 mm NW 314 2,5 km/h (1 Bft)
29.08.2011 19:15 18,7 C 69 % 1082,0 hPa 0,0 mm NW 314 2,5 km/h (1 Bft)
29.08.2011 19:20 18,4 C 71 % 1082,1 hPa 0,0 mm NW 314 1,1 km/h (1 Bft)
29.08.2011 19:25 18,2 C 73 % 1082,1 hPa 0,0 mm N 0 0,0 km/h (0 Bft)
29.08.2011 19:30 17,9 C 73 % 1082,1 hPa 0,0 mm NW 314 1,1 km/h (1 Bft)
29.08.2011 19:35 17,7 C 75 % 1082,4 hPa 0,0 mm NW 314 2,5 km/h (1 Bft)
29.08.2011 19:40 17,7 C 76 % 1082,5 hPa 0,0 mm NW 314 2,5 km/h (1 Bft)
29.08.2011 19:45 17,6 C 77 % 1082,5 hPa 0,0 mm NW 314 2,5 km/h (1 Bft)
29.08.2011 19:50 17,6 C 78 % 1082,4 hPa 0,0 mm N 0 0,0 km/h (0 Bft)
29.08.2011 19:55 17,5 C 78 % 1082,4 hPa 0,0 mm N 0 0,0 km/h (0 Bft)
29.08.2011 20:00 17,4 C 80 % 1082,3 hPa 0,0 mm NW 314 2,5 km/h (1 Bft)
29.08.2011 20:05 17,4 C 80 % 1082,4 hPa 0,0 mm NW 314 2,5 km/h (1 Bft)
29.08.2011 20:10 17,3 C 82 % 1082,6 hPa 0,0 mm NW 314 2,5 km/h (1 Bft)
29.08.2011 20:15 17,2 C 82 % 1082,6 hPa 0,0 mm NW 314 2,5 km/h (1 Bft)
29.08.2011 20:20 17,2 C 82 % 1082,8 hPa 0,0 mm NW 314 2,5 km/h (1 Bft)
29.08.2011 20:25 17,2 C 82 % 1082,8 hPa 0,0 mm NW 314 2,5 km/h (1 Bft)
29.08.2011 20:30 17,1 C 82 % 1082,9 hPa 0,0 mm NW 314 2,5 km/h (1 Bft)
29.08.2011 20:35 17,1 C 83 % 1082,9 hPa 0,0 mm NW 314 2,5 km/h (1 Bft)
29.08.2011 20:40 17,0 C 82 % 1083,0 hPa 0,0 mm NW 314 1,1 km/h (1 Bft)
29.08.2011 20:45 17,1 C 82 % 1083,0 hPa 0,0 mm N 0 0,0 km/h (0 Bft)
29.08.2011 20:50 17,0 C 82 % 1083,2 hPa 0,0 mm N 0 0,0 km/h (0 Bft)
29.08.2011 20:55 17,0 C 83 % 1083,4 hPa 0,0 mm N 0 0,0 km/h (0 Bft)
29.08.2011 21:00 17,0 C 84 % 1083,3 hPa 0,0 mm N 0 0,0 km/h (0 Bft)
29.08.2011 21:05 17,0 C 84 % 1083,5 hPa 0,0 mm N 0 0,0 km/h (0 Bft)
29.08.2011 21:10 16,9 C 84 % 1083,4 hPa 0,0 mm N 0 0,0 km/h (0 Bft)
29.08.2011 21:15 16,9 C 85 % 1083,4 hPa 0,0 mm N 0 0,0 km/h (0 Bft)
29.08.2011 21:20 16,9 C 85 % 1083,5 hPa 0,0 mm N 0 0,0 km/h (0 Bft)
29.08.2011 21:25 16,9 C 85 % 1083,4 hPa 0,0 mm NW 314 1,1 km/h (1 Bft)
29.08.2011 21:30 16,9 C 85 % 1083,5 hPa 0,0 mm NW 314 1,1 km/h (1 Bft)
29.08.2011 21:35 16,8 C 86 % 1083,6 hPa 0,0 mm NW 314 1,1 km/h (1 Bft)
29.08.2011 21:40 16,8 C 86 % 1083,6 hPa 0,0 mm N 0 0,0 km/h (0 Bft)
29.08.2011 21:45 16,8 C 86 % 1083,6 hPa 0,0 mm N 0 0,0 km/h (0 Bft)
29.08.2011 21:50 16,8 C 86 % 1083,5 hPa 0,0 mm NW 314 1,1 km/h (1 Bft)
29.08.2011 21:55 16,8 C 86 % 1083,6 hPa 0,0 mm NW 314 1,1 km/h (1 Bft)
29.08.2011 22:00 16,9 C 86 % 1083,7 hPa 0,0 mm NW 314 3,6 km/h (1 Bft)
29.08.2011 22:05 16,9 C 86 % 1083,7 hPa 0,0 mm NW 314 3,6 km/h (1 Bft)
29.08.2011 22:10 16,9 C 86 % 1083,7 hPa 0,0 mm NW 314 1,1 km/h (1 Bft)
29.08.2011 22:15 16,8 C 86 % 1083,5 hPa 0,0 mm NW 314 2,5 km/h (1 Bft)
29.08.2011 22:20 16,8 C 86 % 1083,9 hPa 0,0 mm NW 314 2,5 km/h (1 Bft)
29.08.2011 22:25 16,8 C 86 % 1083,8 hPa 0,0 mm NW 314 2,5 km/h (1 Bft)
29.08.2011 22:30 16,8 C 87 % 1083,7 hPa 0,0 mm NW 314 3,6 km/h (1 Bft)
29.08.2011 22:35 16,8 C 87 % 1083,9 hPa 0,0 mm NW 323 3,6 km/h (1 Bft)
29.08.2011 22:40 16,8 C 87 % 1083,7 hPa 0,0 mm SO 135 3,6 km/h (1 Bft)
29.08.2011 22:45 16,8 C 87 % 1084,1 hPa 0,0 mm SO 139 3,6 km/h (1 Bft)
29.08.2011 22:50 16,8 C 87 % 1083,8 hPa 0,0 mm SO 129 2,5 km/h (1 Bft)
29.08.2011 22:55 16,8 C 87 % 1083,9 hPa 0,0 mm SO 131 2,5 km/h (1 Bft)
29.08.2011 23:00 16,7 C 87 % 1084,2 hPa 0,0 mm SO 135 2,5 km/h (1 Bft)
29.08.2011 23:05 16,7 C 87 % 1084,0 hPa 0,0 mm SO 135 1,1 km/h (1 Bft)
29.08.2011 23:10 16,8 C 87 % 1084,2 hPa 0,0 mm O-SO 123 3,6 km/h (1 Bft)
29.08.2011 23:15 16,8 C 87 % 1084,2 hPa 0,0 mm O-SO 120 3,6 km/h (1 Bft)
29.08.2011 23:20 16,8 C 88 % 1084,3 hPa 0,0 mm SW 233 7,2 km/h (2 Bft)
29.08.2011 23:25 16,7 C 88 % 1084,4 hPa 0,0 mm W-SW 242 7,2 km/h (2 Bft)
29.08.2011 23:30 16,7 C 88 % 1084,4 hPa 0,0 mm SW 217 5,0 km/h (1 Bft)
29.08.2011 23:35 16,7 C 88 % 1084,2 hPa 0,0 mm SW 225 5,0 km/h (1 Bft)
29.08.2011 23:40 16,7 C 86 % 1084,3 hPa 0,0 mm SW 225 8,6 km/h (2 Bft)
29.08.2011 23:45 16,8 C 85 % 1084,2 hPa 0,0 mm S-SW 213 8,6 km/h (2 Bft)
29.08.2011 23:50 16,8 C 83 % 1084,5 hPa 0,0 mm S-SW 203 7,2 km/h (2 Bft)
29.08.2011 23:55 16,9 C 83 % 1084,5 hPa 0,0 mm W 259 7,2 km/h (2 Bft)
_ Min-Zeit 05:55 14:30 15:00 - - - 00:55
Minimum _ 8,3 C 48 % 1080,9 hPa - - - 0,0 km/h (0 Bft)
_ Max-Zeit 15:10 01:15 00:15 00:00 - - 13:40
Maximum _ 24,7 C 99 % 1087,6 hPa 0,0 mm - - 18,4 km/h
W-SW (3 Bft)
Durchschnitt _ 16,7 C 78 % 1083,8 hPa #0,0 mm N - 6,1 km/h (2 Bft)